Home > Weather > Herford > Past weeks

Flag for Germany Weather for the Past 2 Weeks in Herford, North Rhine-Westphalia, Germany

Now
52 °F

Scattered clouds.


Feels Like: 48 °F
Forecast: 42 / 50 °F
Wind: 10 mph from South

Location: Bueckeburg

Current Time: Feb 6, 2016 at 3:05:28 PM

Latest Report: Feb 6, 2016 at 2:20 PM


Visibility: N/A

Pressure: 29.80 "Hg

Humidity: 72%

Dew point: 43 °F

Location of HerfordLocation

Historic Weather in Herford — Graph

°F

Herford Temperature Yesterday

Maximum temperature yesterday: 48 °F (at 4:20 PM)
Minimum temperature yesterday: 37 °F (at 12:20 AM)
Average temperature yesterday: 43 °F

High & Low Weather Summary for the Past Weeks

 TemperatureHumidityPressure
High54 °F (Jan 25, 1:20 PM)100% (Jan 23, 6:20 AM)30.51 "Hg (Jan 23, 6:20 AM)
Low28 °F (Jan 22, 1:20 PM)57% (Jan 28, 1:20 PM)29.59 "Hg (Jan 30, 2:20 PM)
Average44 °F85%30.04 "Hg
* Reported Jan 22 1:20 PM — Feb 6 1:20 PM, Herford, Weather by CustomWeather, © 2016

Note: Actual official high and low records may vary slightly from our data, if they occured in-between our weather recording intervals... More about our weather records

Advertising

Herford Weather History for the Previous 24 Hours

 ConditionsComfort  
Time TempWeatherWind HumidityBarometerVisibility
1:20 PM
Sat, Feb 6
52 °FPartly sunny.12 mph72%29.83 "HgN/A
12:20 PM52 °FScattered clouds.10 mph72%29.86 "HgN/A
11:20 AM50 °FScattered clouds.15 mph76%29.86 "HgN/A
10:20 AM48 °FBroken clouds.14 mph76%29.86 "HgN/A
9:20 AM46 °FOvercast.13 mph82%29.89 "HgN/A
8:20 AM46 °FPartly sunny.10 mph82%29.92 "HgN/A
7:20 AM46 °FPartly cloudy.12 mph82%29.92 "HgN/A
6:20 AM46 °FPassing clouds.12 mph87%29.92 "HgN/A
5:20 AM48 °FPassing clouds.15 mph82%29.95 "HgN/A
4:20 AM48 °FPassing clouds.17 mph82%29.95 "HgN/A
3:20 AM50 °FPassing clouds.20 mph76%29.98 "HgN/A
2:20 AM50 °FPassing clouds.15 mph76%30.01 "HgN/A
1:20 AM50 °FPassing clouds.15 mph82%30.04 "HgN/A
12:20 AM50 °FPassing clouds.13 mph82%30.04 "HgN/A
11:20 PM
Fri, Feb 5
48 °FPartly cloudy.15 mph94%30.07 "Hg5 mi
10:20 PM48 °FPassing clouds.13 mph94%30.07 "Hg4 mi
9:20 PM48 °FPassing clouds.13 mph94%30.09 "HgN/A
8:20 PM48 °FPartly cloudy.10 mph87%30.09 "HgN/A
7:20 PM48 °FPartly cloudy.13 mph94%30.09 "HgN/A
6:20 PM48 °FPassing clouds.14 mph87%30.09 "HgN/A
5:20 PM48 °FPartly cloudy.12 mph87%30.09 "HgN/A
4:20 PM48 °FBroken clouds.13 mph87%30.12 "Hg5 mi
3:20 PM46 °FPartly sunny.13 mph93%30.12 "HgN/A
Weather by CustomWeather, © 2016

See weather overviewHow to use our weather pages